Location: Buckhorn Peak
(37.6641°N, 120.1241°W)
Time: 20:50:24
(UTC+00:00)

BlueWalker 3 - Pass Details

Date: 18 October 2024
Orbit: 470 x 481 km, 53.2° (Epoch: 12 November)

Event Time Altitude Azimuth Distance (km) Brightness Sun altitude
Exits shadow 13:18:45 - 328° (NNW) 2,103 4.8 -11.3°
Reaches altitude 10° 13:20:13 10° 341° (NNW) 1,631 4.3 -11.0°
Maximum altitude 13:22:56 19° 29° (NNE) 1,172 4.1 -10.5°
Drops below altitude 10° 13:25:38 10° 76° (ENE) 1,629 5.9 -10.0°
Sets 13:28:15 0° 95° (E) 2,506 7.9 -9.4°
